Location: Joplin, MO
(37.0842°N, 94.5133°W)
Time: 21:21:13
(UTC+02:00)

Transit 2A Rocket - Pass Details

Date: 27 March 2023
Orbit: 584 x 914 km, 66.7° (Epoch: 06 June)

Event Time Altitude Azimuth Distance (km) Brightness Sun altitude
Rises 06:03:04 0° 310° (NW) 3,531 9.4 -38.7°
Reaches altitude 10° 06:07:14 10° 283° (WNW) 2,546 8.2 -39.3°
Maximum altitude 06:09:35 13° 259° (W) 2,335 7.8 -39.7°
Enters shadow 06:09:44 13° 258° (WSW) 2,334 7.8 -39.7°
Drops below altitude 10° 06:11:53 10° 235° (SW) 2,476 - -40.0°
Sets 06:15:49 0° 208° (SSW) 3,332 - -40.6°
